Location: Newark
(48.4472°N, 1.4892°E)
Time: 10:24:16
(UTC+00:00)

Transit 4A - Pass Details

Date: 21 January 2021
Orbit: 866 x 978 km, 66.8° (Epoch: 26 February)

Event Time Altitude Azimuth Distance (km) Brightness Sun altitude
Exits shadow 03:58:11 38° 120° (ESE) 1,372 9.0 -35.7°
Drops below altitude 10° 04:01:50 10° 134° (SE) 2,590 10.6 -35.1°
Sets 04:04:19 0° 137° (SE) 3,512 11.3 -34.7°
